Location: Lombard
(41.8800°N, 88.0080°W)
Time: 18:25:36
(UTC-06:00)

Tiangong - Pass Details

Date: 29 November 2022
Orbit: 383 x 386 km, 41.5° (Epoch: 28 January)

Event Time Altitude Azimuth Distance (km) Brightness Sun altitude
Rises 18:02:08 0° 228° (SW) 2,254 2.8 -18.1°
Reaches altitude 10° 18:04:22 10° 216° (SW) 1,405 1.4 -18.5°
Enters shadow 18:06:56 27° 162° (SSE) 779 -0.7 -19.0°
